Lexington Weather

Lexington, Massachusetts, USA

24°F
3/3/2021 3:29am 
  • Lexington Conditions: Overcast
  • Temperature: 23.9°F / -4.5°CWarmer 1.6°F than last hour.
  • Dew Point: 10.9°FIncreased 1.6°Fsince last hour.
  • Relative Humidity: 57
  • Wind: Wind from SW SW 2 mph, 10-min avg: 1 mph, gust: 8 mph
  • Barometer: 29.86 inFalling 0.03  inHg/hr Falling Slowly
  • Visibility: 10 miles
  • Snow Today: 0.0 in
  •   

Regional Weather Roundup
for Boston / Norton, MA

        
000
ASUS41 KBOX 011104
RWRBOX

REGIONAL WEATHER ROUNDUP
NATIONAL WEATHER SERVICE BOSTON/NORTON MA
600 AM EST MON MAR 01 2021

NOTE:  "FAIR" INDICATES FEW OR NO CLOUDS BELOW 12,000 FEET WITH NO 
SIGNIFICANT WEATHER AND/OR OBSTRUCTIONS TO VISIBILITY.

MAZALL-011200-
EASTERN MASSACHUSETTS
  
CITY           SKY/WX    TMP DP  RH WIND       PRES   REMARKS
BOSTON         LGT RAIN  37  37 100 E7        29.70F FOG     WCI  32  
BEVERLY        LGT RAIN  41  40  96 SE10      29.69F FOG              
LAWRENCE       LGT RAIN  38  38 100 NE3       29.71F                  
BEDFORD        LGT RAIN  37  36  96 NW3       29.69F FOG              
BLUE HILL        N/A     39  39 100 SE10      29.66F                  
NORWOOD        LGT RAIN  40  37  89 CALM      29.68F FOG              
MARSHFIELD     CLOUDY    45  45 100 SE10G18   29.68F FOG              
PLYMOUTH       LGT RAIN  46  44  93 S7        29.67F                  
TAUNTON        LGT RAIN  45  43  93 SE5       29.67F                  
NEW BEDFORD    LGT RAIN  46  44  93 SE6       29.67F                  
$$

MAZALL-011200-
CAPE COD AND THE ISLANDS
  
CITY           SKY/WX    TMP DP  RH WIND       PRES   REMARKS
FALMOUTH       LGT RAIN  43  43 100 SE15G25   29.69F                  
HYANNIS        LGT RAIN  45  43  93 SE13G23   29.67F FOG              
CHATHAM        LGT RAIN  45  43  93 SE15G24   29.71F FOG              
PROVINCETOWN   LGT RAIN  44  44 100 SE16G24   29.69F                  
NANTUCKET        N/A    N/A N/A N/A MISG      29.69F                  
MARTHAS VNYRD  RAIN      45  45 100 SE18G28   29.67F FOG              
$$
 
MAZALL-011200-
CENTRAL AND WESTERN MASSACHUSETTS
  
CITY           SKY/WX    TMP DP  RH WIND       PRES   REMARKS
WORCESTER      LGT RAIN  35  34  96 NE5       29.66F VSB 1/4 WCI  31  
FITCHBURG      LGT RAIN  35  35 100 CALM      29.70F FOG              
ORANGE         LGT RAIN  34  33  96 NW5       29.70F FOG     WCI  30  
SPRINGFIELD    LGT RAIN  35  35 100 NW6       29.68F WCI  30          
WESTFIELD      RAIN      34  34 100 N6        29.69F WCI  29          
NORTH ADAMS    CLOUDY    39  37  92 E9        29.64F                  
PITTSFIELD     CLOUDY    35  34  96 E3        29.62F FOG              
$$
 
RIZALL-011200-
RHODE ISLAND
  
CITY           SKY/WX    TMP DP  RH WIND       PRES   REMARKS
PROVIDENCE     LGT RAIN  43  42  97 CALM      29.67F                  
NEWPORT        LGT RAIN  42  42 100 SE9G18    29.65F FOG              
BLOCK ISLAND   LGT RAIN  44  44 100 S9        29.66F VSB 3/4          
SMITHFIELD     LGT RAIN  41  41 100 CALM      29.67F VSB 1/4          
WESTERLY       LGT RAIN  41  41 100 N3        29.66F                  
$$
 
CTZALL-011200-
CONNECTICUT
  
CITY           SKY/WX    TMP DP  RH WIND       PRES   REMARKS
BRADLEY INTL   LGT RAIN  35  34  96 N3        29.69F FOG              
HARTFORD       LGT RAIN  37  34  89 N6        29.70F FOG              
BRIDGEPORT     LGT RAIN  41  40  96 N6        29.68F                  
DANBURY        LGT RAIN  38  35  89 CALM      29.69S VSB 1/2          
GROTON         LGT RAIN  44  43  96 NE5       29.65F                  
NEW HAVEN      CLOUDY    40  38  93 N7        29.68F FOG              
CHESTER        LGT RAIN  43  43 100 CALM      29.66F VSB 1/4          
MERIDEN        CLOUDY    36  34  92 W5        29.69F                  
WILLIMANTIC    CLOUDY    38  38 100 CALM      29.67F FOG              
OXFORD         FOG       36  36 100 N5        29.67F VSB 1/4          
$$

MEZ002-015-021-024-NHZ003-005-008-011-012-014-VTZ005-008-011200-
NORTHERN NEW ENGLAND
  
CITY           SKY/WX    TMP DP  RH WIND       PRES   REMARKS
PORTLAND ME    LGT RAIN  39  39 100 SE9       29.75F FOG              
BANGOR ME      CLOUDY    37  32  82 S9        29.80F WCI  30          
CONCORD NH     LGT RAIN  37  35  92 CALM      29.71F                  
MANCHESTER NH  LGT RAIN  37  35  92 CALM      29.68F FOG              
NASHUA NH      LGT RAIN  35  35 100 NW3       29.70F FOG              
PORTSMOUTH NH  LGT RAIN  40  40  99 E7        29.70F FOG              
JAFFREY NH     LGT RAIN  34  33  96 CALM      29.67F FOG              
KEENE NH       LGT RAIN  34  33  96 CALM      29.69F FOG              
BURLINGTON VT  LGT RAIN  38  35  89 S16G26    29.57F WCI  29          
MT. WASHINGTON FRZ RAIN  23  23 100 S52G58      N/A  VSB 1/16WCI   1  
$$

NYZ052-076-011200-
EASTERN NEW YORK
  
CITY           SKY/WX    TMP DP  RH WIND       PRES   REMARKS
ALBANY         CLOUDY    37  37 100 S10G18    29.63F WCI  30          
NEW YORK CITY  LGT RAIN  41  38  89 NE5       29.70S VSB 1/2          
$$
 
ANZALL-011200-
MARINE OBSERVATIONS
  
STATION/POSITION TIME  TEMP    WIND        PRES    VSBY  WAVE
                       AIR SEA DIR/SP/G                  HT/PER
                 (UTC) (F)     (DEG/KT/KT) (MB)    (MI)  (FT/S)
BOSTON BUOY      1040   40 38  140/ 12/ 14 1006.6F
BUZZARDS BAY     1000          130/ 22/ 23 1006.3F
NANTUCKET SOUND  1040      37  130/ 19/ 21   N/A
MASS BAY-STELLWA 1004   41     120/ 12/ 16 1006.6F  1 7/8  4/ 5
ISLE OF SHOALS   1000   40     120/ 13/ 14 1007.7F
S OF BLOCK IS    1026      40                N/A           7/ 8
$$

......................KEY.........................
  SKY/WX - SKY CONDITION/PRESENT WEATHER
  TMP    - TEMPERATURE IN FAHRENHEIT
  DWPT   - DEWPOINT IN FAHRENHEIT
  RH     - RELATIVE HUMIDITY IN PERCENT
  WIND   - DIRECTION AND SPEED IN MPH
  PRES   - MEAN SEA LEVEL PRESSURE IN INCHES OF HG
  WCI    - WIND CHILL INDEX
  VSB    - VISIBILITY IN MILES
  HX     - HEAT INDEX
  TC     - TEMPERATURE IN CELSIUS
  VRB    - VARIABLE WIND DIRECTION
  N/A    - NOT AVAILABLE
  
      

Other recent Regional Weather Roundups

Wed Mar 3, 3:04am

Wed Mar 3, 2:04am

Wed Mar 3, 1:04am

Wed Mar 3, 12:04am

Tue Mar 2, 11:04pm

Tue Mar 2, 10:05pm

Tue Mar 2, 9:04pm

Tue Mar 2, 8:04pm

Tue Mar 2, 7:04pm

Tue Mar 2, 6:04pm

Tue Mar 2, 5:04pm

Tue Mar 2, 4:05pm

Tue Mar 2, 3:04pm

Tue Mar 2, 2:04pm

Tue Mar 2, 1:04pm

Tue Mar 2, 12:04pm

Tue Mar 2, 11:04am

Tue Mar 2, 10:05am

Tue Mar 2, 9:04am

Tue Mar 2, 8:04am

Tue Mar 2, 7:04am

Tue Mar 2, 6:05am

Tue Mar 2, 5:04am

Tue Mar 2, 4:04am

Tue Mar 2, 3:04am

Tue Mar 2, 2:04am

Tue Mar 2, 1:04am

Tue Mar 2, 12:04am

Mon Mar 1, 11:04pm

Mon Mar 1, 10:04pm

Mon Mar 1, 9:04pm

Mon Mar 1, 8:04pm

Mon Mar 1, 7:04pm

Mon Mar 1, 6:04pm

Mon Mar 1, 5:04pm

Mon Mar 1, 4:05pm

Mon Mar 1, 3:05pm

Mon Mar 1, 2:04pm

Mon Mar 1, 1:04pm

Mon Mar 1, 12:04pm

Mon Mar 1, 11:04am

Mon Mar 1, 10:04am

Mon Mar 1, 9:04am

Mon Mar 1, 8:05am

Mon Mar 1, 7:04am

Mon Mar 1, 5:04am

Mon Mar 1, 4:05am

Mon Mar 1, 3:04am

Mon Mar 1, 2:04am

Mon Mar 1, 1:04am

Mon Mar 1, 12:05am

Sun Feb 28, 11:04pm

Sun Feb 28, 10:04pm

Sun Feb 28, 9:04pm

Sun Feb 28, 8:04pm

Sun Feb 28, 7:04pm

Sun Feb 28, 6:05pm

Sun Feb 28, 5:04pm

Sun Feb 28, 4:05pm

Sun Feb 28, 3:04pm

Sun Feb 28, 2:04pm

Sun Feb 28, 1:04pm

Sun Feb 28, 12:04pm

Sun Feb 28, 11:04am

Sun Feb 28, 10:04am

Sun Feb 28, 9:04am

Sun Feb 28, 8:04am

Sun Feb 28, 7:04am

Sun Feb 28, 6:04am

Sun Feb 28, 5:04am

Sun Feb 28, 4:04am

Sun Feb 28, 3:04am

Sun Feb 28, 2:04am

Sun Feb 28, 1:04am

Sun Feb 28, 12:04am

Sat Feb 27, 11:04pm

Sat Feb 27, 10:04pm

Sat Feb 27, 9:04pm

Sat Feb 27, 8:04pm

Sat Feb 27, 7:04pm

Sat Feb 27, 6:04pm

Sat Feb 27, 5:04pm

Sat Feb 27, 4:04pm

Sat Feb 27, 3:05pm

Sat Feb 27, 2:05pm

Sat Feb 27, 1:04pm

Sat Feb 27, 12:04pm

Sat Feb 27, 11:04am

Sat Feb 27, 10:04am

Sat Feb 27, 9:05am

Sat Feb 27, 8:04am

Sat Feb 27, 7:04am

Sat Feb 27, 6:04am

Sat Feb 27, 5:04am

Sat Feb 27, 4:04am

Sat Feb 27, 3:04am

Sat Feb 27, 2:04am

Sat Feb 27, 1:04am

Sat Feb 27, 12:04am

Fri Feb 26, 11:04pm

Fri Feb 26, 10:04pm

Fri Feb 26, 9:04pm

Fri Feb 26, 8:04pm

Fri Feb 26, 7:04pm

Fri Feb 26, 6:04pm

Fri Feb 26, 5:04pm

Fri Feb 26, 4:04pm

Fri Feb 26, 3:04pm

Fri Feb 26, 2:04pm

Fri Feb 26, 1:04pm

Fri Feb 26, 12:04pm

Fri Feb 26, 11:04am

Fri Feb 26, 10:04am

Fri Feb 26, 9:04am

Fri Feb 26, 8:04am

Fri Feb 26, 7:04am

Fri Feb 26, 6:04am

Fri Feb 26, 5:04am

Fri Feb 26, 4:04am

Fri Feb 26, 3:04am

Fri Feb 26, 2:04am

Fri Feb 26, 1:04am

Fri Feb 26, 12:04am

Thu Feb 25, 11:04pm

Thu Feb 25, 10:04pm

Thu Feb 25, 9:04pm

Thu Feb 25, 8:05pm

Thu Feb 25, 7:05pm

Thu Feb 25, 6:04pm

Thu Feb 25, 5:04pm

Thu Feb 25, 4:05pm

Thu Feb 25, 3:05pm

Thu Feb 25, 2:04pm

Thu Feb 25, 1:04pm

Thu Feb 25, 12:05pm

Thu Feb 25, 11:04am

Thu Feb 25, 10:04am

Thu Feb 25, 9:04am

Thu Feb 25, 8:04am

Thu Feb 25, 7:04am

Thu Feb 25, 6:04am

Thu Feb 25, 5:04am

Thu Feb 25, 4:04am

Thu Feb 25, 3:04am

Thu Feb 25, 2:04am

Thu Feb 25, 1:04am

Thu Feb 25, 12:04am

Wed Feb 24, 11:04pm

Wed Feb 24, 10:05pm

Wed Feb 24, 9:04pm

Wed Feb 24, 8:04pm

Wed Feb 24, 7:04pm

Wed Feb 24, 6:04pm

Wed Feb 24, 5:04pm

Wed Feb 24, 4:04pm

Wed Feb 24, 3:04pm

Wed Feb 24, 2:05pm

Wed Feb 24, 1:05pm

Wed Feb 24, 12:05pm

Wed Feb 24, 11:04am

Wed Feb 24, 10:04am

Wed Feb 24, 9:04am

Wed Feb 24, 8:04am

Wed Feb 24, 7:04am

Wed Feb 24, 6:04am

Wed Feb 24, 5:04am

Wed Feb 24, 4:04am

Meta data:

ID: 0707c14c-b5ca-43d2-9afc-40a397463ce7
Link: https://api.weather.gov/products/0707c14c-b5ca-43d2-9afc-40a397463ce7